Regional Weather Roundup
Issued by NWS

Home | Current Version | Previous Version | Graphics & Text | Print | Product List | Glossary On
Versions: 1 2 3 4 5 6 7 8 9 10 11 12 13 14 15 16 17 18 19 20 21 22 23 24 25 26 27 28 29 30 31 32 33 34 35 36 37 38 39 40 41 42 43 44 45 46 47 48 49 50
000
ASUS43 KMKX 271211
RWRWI

WISCONSIN REGIONAL WEATHER ROUNDUP
NATIONAL WEATHER SERVICE MILWAUKEE/SULLIVAN WI
700 AM CDT THU APR 27 2017

NOTE: "FAIR" INDICATES FEW OR NO CLOUDS BELOW 12,000 FEET WITH NO
SIGNIFICANT WEATHER AND/OR OBSTRUCTIONS TO VISIBILITY.

WIZ001-002-006>008-014>016-023>028-271300-
NORTHWEST WISCONSIN

CITY           SKY/WX    TMP DP  RH WIND       PRES   REMARKS
SUPERIOR ARPT  CLOUDY    26  22  85 CALM      29.56S
6HR MIN TEMP:  26; 6HR MAX TEMP:  28;

ASHLAND        CLOUDY    27  24  89 N13       29.52F WCI  16
6HR MIN TEMP:  27; 6HR MAX TEMP:  29; 6HR PCP:  0.05;

HAYWARD        CLOUDY    28  23  81 N9        29.49S WCI  19
6HR MIN TEMP:  27; 6HR MAX TEMP:  29; 6HR PCP: TRACE;

SIREN          CLOUDY    28  25  87 N8        29.53S WCI  20
6HR MIN TEMP:  28; 6HR MAX TEMP:  32;

CUMBERLAND     CLOUDY    28  27  93 N10       29.49S WCI  19
RICE LAKE      CLOUDY    30  27  90 NW8       29.51R WCI  22
6HR MIN TEMP:  30; 6HR MAX TEMP:  33;

CHETEK         CLOUDY    31  28  88 N10       29.49R WCI  22
6HR MIN TEMP:  31; 6HR MAX TEMP:  33;

LADYSMITH      CLOUDY    30  26  83 N13G18    29.47S WCI  20
6HR MIN TEMP:  30; 6HR MAX TEMP:  32;

EAU CLAIRE     CLOUDY    33  28  81 N6        29.47R WCI  28
6HR MIN TEMP:  33; 6HR MAX TEMP:  36;

MENOMONIE      CLOUDY    33  29  84 NW10      29.49S WCI  25
6HR MIN TEMP:  33; 6HR MAX TEMP:  36;

NEW RICHMOND   CLOUDY    32  28  85 N8        29.51S WCI  25
6HR MIN TEMP:  32; 6HR MAX TEMP:  34;

OSCEOLA        CLOUDY    31  29  90 N7        29.55S WCI  24
6HR MIN TEMP:  31; 6HR MAX TEMP:  34;

$$

WIZ003>005-009-010-017-018-271300-
NORTH CENTRAL WISCONSIN

CITY           SKY/WX    TMP DP  RH WIND       PRES   REMARKS
MANITOWISH WTR LGT SNOW  27  27 100 N6        29.41F WCI  20
6HR MIN TEMP:  27; 6HR MAX TEMP:  29;

ARBOR VITAE    LGT SNOW  31  29  92 N9G16     29.39F WCI  23
6HR MIN TEMP:  29; 6HR MAX TEMP:  32; 6HR PCP:  0.03;

WOODRUFF       LGT SNOW  31  29  92 N9G16     29.39F WCI  23
6HR MIN TEMP:  29; 6HR MAX TEMP:  32; 6HR PCP:  0.03;

RHINELANDER    FRZ RAIN  31  29  92 N8G17     29.38F FOG     WCI  23
6HR MIN TEMP:  31; 6HR MAX TEMP:  34; 6HR PCP:  0.09;

EAGLE RIVER    LGT SNOW  29  28  97 N13G18    29.38F WCI  19
6HR MIN TEMP:  29; 6HR MAX TEMP:  31;

LAND O LAKES   LGT SNOW  29  27  94 N9        29.41F WCI  20
6HR MIN TEMP:  28; 6HR MAX TEMP:  30;

PHILLIPS       MIX PCPN  27  25  89 N9        29.42S WCI  18
6HR MIN TEMP:  27; 6HR MAX TEMP:  30;

TOMAHAWK       LGT SNOW  29  28  94 N6        29.39F WCI  23
6HR MIN TEMP:  29; 6HR MAX TEMP:  33;

MEDFORD        MIX PCPN  30  28  93 NW9       29.40R WCI  22
6HR MIN TEMP:  30; 6HR MAX TEMP:  34; 6HR PCP:  0.06;

MERRILL        MIX PCPN  32  31  96 N7        29.39S WCI  26
6HR MIN TEMP:  32; 6HR MAX TEMP:  35; 6HR PCP:  0.07;

$$

WIZ029-030-035-036-043>047-271300-
CENTRAL WISCONSIN

CITY           SKY/WX    TMP DP  RH WIND       PRES   REMARKS
WAUSAU         RAIN      33  31  92 NW8       29.35F FOG     WCI  26
6HR MIN TEMP:  33; 6HR MAX TEMP:  38; 6HR PCP:  0.18;

MOSINEE        LGT RAIN  34  34 100 N10       29.37F WCI  26
MARSHFIELD     FRZ RAIN  32  30  92 NW16      29.38F FOG     WCI  21
6HR MIN TEMP:  32; 6HR MAX TEMP:  37; 6HR PCP:  0.14;

STEVENS POINT  RAIN      33  33 100 NW5       29.36F WCI  28
6HR MIN TEMP:  33; 6HR MAX TEMP:  40;

WAUPACA        RAIN      40  38  93 NW10      29.33F WCI  34
6HR MIN TEMP:  40; 6HR MAX TEMP:  46; 6HR PCP:  0.07;

WAUTOMA        LGT RAIN  37  37 100 NW10      29.35S WCI  30
6HR MIN TEMP:  38; 6HR MAX TEMP:  44; 6HR PCP:  0.49;

WISC RAPIDS    RAIN      35  34  96 N12       29.38F FOG     WCI  27
6HR MIN TEMP:  35; 6HR MAX TEMP:  42; 6HR PCP:  0.22;

CAMP DOUGLAS   SLEET     34  34 100 NW14      29.39F WCI  24
6HR MIN TEMP:  34; 6HR MAX TEMP:  40; 6HR PCP:  0.23;

$$

WIZ011>013-019>022-031-037>040-048>050-271300-
NORTHEAST WISCONSIN

CITY           SKY/WX    TMP DP  RH WIND       PRES   REMARKS
ANTIGO         MIX PCPN  32  32  99 N14       29.33F WCI  22
6HR MIN TEMP:  32; 6HR MAX TEMP:  37; 6HR PCP:  0.12;

SHAWANO        RAIN      40  37  91 NW5       29.33S
6HR MIN TEMP:  40; 6HR MAX TEMP:  48; 6HR PCP:  0.34;

OCONTO         CLOUDY    38  36  94 N12G17    29.30F WCI  30
6HR MIN TEMP:  38; 6HR MAX TEMP:  51; 6HR PCP:  0.43;

STURGEON BAY   LGT RAIN  41  40  96 N15       29.29F
6HR MIN TEMP:  41; 6HR MAX TEMP:  55; 6HR PCP:  0.49;

GREEN BAY      HVY RAIN  42  41  96 N8        29.31R FOG
6HR MIN TEMP:  42; 6HR MAX TEMP:  51; 6HR PCP:  0.61;

MANITOWOC      CLOUDY    46  45  96 NW8       29.28S
6HR MIN TEMP:  46; 6HR MAX TEMP:  53; 6HR PCP:  0.57;

APPLETON       LGT RAIN  43  43 100 NW12      29.30S FOG
CLINTONVILLE   RAIN      37  37 100 NW10      29.32S WCI  30
OSHKOSH        RAIN      42  40  92 NW10      29.30F FOG
6HR MIN TEMP:  42; 6HR MAX TEMP:  47; 6HR PCP:  0.73;

$$

WIZ032>034-041-042-053>061-271300-
SOUTHWEST WISCONSIN

CITY           SKY/WX    TMP DP  RH WIND       PRES   REMARKS
LA CROSSE      CLOUDY    37  34  89 NW14      29.45S WCI  28
6HR MIN TEMP:  37; 6HR MAX TEMP:  42; 6HR PCP: TRACE;

SPARTA         SNOW      32  32 100 NW7       29.45S VSB 1/2 WCI  26
6HR MIN TEMP:  32; 6HR MAX TEMP:  40; 6HR PCP:  0.20;

VIROQUA        CLOUDY    32  32 100 NW7       29.42S VSB 1/2 WCI  26
6HR MIN TEMP:  32; 6HR MAX TEMP:  39; 6HR PCP:  0.21;

BOSCOBEL       LGT RAIN  37  34  89 VRB5      29.45R WCI  33
6HR MIN TEMP:  37; 6HR MAX TEMP:  44; 6HR PCP:  0.35;

PRAIRIE DU CHI CLOUDY    37  36  97 W10       29.46R WCI  30
6HR MIN TEMP:  36; 6HR MAX TEMP:  41; 6HR PCP:  0.42;

PLATTEVILLE    CLOUDY    37  37 100 W13G20    29.44R WCI  28
6HR MIN TEMP:  37; 6HR MAX TEMP:  43; 6HR PCP:  0.29;

$$

WIZ056-057-062-063-064-067-068-271300-
SOUTH CENTRAL WISCONSIN

CITY           SKY/WX    TMP DP  RH WIND       PRES   REMARKS
REEDSBURG      LGT RAIN  36  36 100 NW10      29.39R WCI  28
6HR MIN TEMP:  36; 6HR MAX TEMP:  42; 6HR PCP:  0.30;

BARABOO/DELLS  RAIN      37  36  96 W7G17     29.37S WCI  31
6HR MIN TEMP:  37; 6HR MAX TEMP:  42; 6HR PCP:  0.22;

LONE ROCK      LGT RAIN  38  34  85 NW10      29.41S FOG     WCI  31
6HR MIN TEMP:  38; 6HR MAX TEMP:  44; 6HR PCP:  0.36;

MINERAL POINT  RAIN      36  36 100 W9G16     29.41R WCI  29
MADISON        RAIN      40  38  93 NW8       29.35S FOG     WCI  34
6HR MIN TEMP:  40; 6HR MAX TEMP:  47; 6HR PCP:  0.68;

MIDDLETON      CLOUDY    41  39  94 NW12      29.37R
6HR MIN TEMP:  41; 6HR MAX TEMP:  47; 6HR PCP:  0.39;

WATERTOWN      RAIN      41  41 100 NW10      29.32R
6HR MIN TEMP:  41; 6HR MAX TEMP:  49; 6HR PCP:  0.59;

MONROE         RAIN      39  37  93 NW10G18   29.38R WCI  32
JANESVILLE     LGT RAIN  43  43 100 NW12G17   29.35R
$$

WIZ051-052-058>065-066-070>072-271300-
SOUTHEAST WISCONSIN

CITY           SKY/WX    TMP DP  RH WIND       PRES   REMARKS
MILWAUKEE      LGT RAIN  50  48  93 NW12      29.28R FOG
6HR MIN TEMP:  50; 6HR MAX TEMP:  58; 6HR PCP:  0.43;

WAUKESHA       LGT RAIN  43  43 100 NW17      29.30S FOG
MILWAUKEE/TIMM RAIN      45  41  87 NW13G18   29.29F
RACINE         LGT RAIN  51  50  96 NW6       29.29R
6HR MIN TEMP:  51; 6HR MAX TEMP:  57; 6HR PCP:  0.37;

KENOSHA        RAIN      50  48  93 NW9       29.26F FOG
6HR MIN TEMP:  49; 6HR MAX TEMP:  58; 6HR PCP:  0.33;

FOND DU LAC    RAIN      43  40  89 NW10      29.30F
6HR MIN TEMP:  43; 6HR MAX TEMP:  47; 6HR PCP:  0.68;

SHEBOYGAN      LGT RAIN  48  46  93 NW8       29.28S
6HR MIN TEMP:  48; 6HR MAX TEMP:  51; 6HR PCP:  0.52;

WEST BEND      LGT RAIN  43  43 100 NW7       29.29S
JUNEAU         LGT RAIN  41  40  96 W3        29.32S
6HR MIN TEMP:  40; 6HR MAX TEMP:  46; 6HR PCP:  0.54;

$$

LSZ147-162-271300-
LAKE SUPERIOR

STATION/POSITION TIME  TEMP    WIND        PRES    WAVE
                       AIR SEA DIR/SP/G            HT/PER
                 (UTC) (F)     (DEG/KT/KT) (MB)    (FT/S)
DEVILS ISLAND    1200   26     350/ 12/ 13 1001.1F
PORT WING        1140   27     350/ 10/ 14 1000.7F
SAXON HARBOR     1130   29      10/ 12/ 14  999.7F
$$

LMZ867-665-643>646-271300-
LAKE MICHIGAN

STATION/POSITION TIME  TEMP    WIND        PRES    WAVE
                       AIR SEA DIR/SP/G            HT/PER
                 (UTC) (F)     (DEG/KT/KT) (MB)    (FT/S)
CHAMBERS ISLAND  1140   40     340/ 14/ 16


USA.gov is the U.S. government's official web portal to all federal, state and local government web resources and services.